DW7220 Weather Reports


Display with metric or nautical units.
time (UTC)temp
F
wind
direction
speed
MPH
gust
MPH
rain 1hr
in
rain 24hr
in
rain mn
in
humidity
%
barometer
mb
20260505070022 73 98 3.0 11.0 0.00 0.03 0.00 78 1014.0
20260505064543 73 101 4.0 9.0 0.00 0.03 0.00 78 1014.1
20260505063114 73 86 4.0 8.0 0.00 0.03 0.00 77 1014.3
20260505061507 73 72 3.0 11.0 0.00 0.03 0.00 76 1014.3
20260505060020 73 86 3.0 10.0 0.00 0.03 0.00 75 1014.9
20260505054540 73 93 4.0 10.0 0.00 0.03 0.00 76 1015.1
20260505053058 73 71 3.0 10.0 0.00 0.03 0.00 76 1014.9
20260505051503 73 90 3.0 15.0 0.00 0.03 0.00 76 1015.0
20260505041504 73 85 4.0 9.0 0.00 0.03 0.00 78 1015.1
20260505040025 73 63 3.0 12.0 0.00 0.03 0.00 76 1015.3
20260505034535 73 58 4.0 12.0 0.00 0.03 0.03 77 1015.3
20260505033058 73 109 5.0 9.0 0.00 0.03 0.03 77 1015.4
20260505031516 74 88 3.0 9.0 0.00 0.03 0.03 77 1015.6
20260505030030 74 72 4.0 13.0 0.00 0.03 0.03 77 1015.5
20260505024557 74 69 7.0 14.0 0.00 0.03 0.03 77 1015.6
20260505023105 74 103 6.0 13.0 0.00 0.03 0.03 78 1015.7
20260505021511 74 93 6.0 14.0 0.00 0.03 0.03 78 1015.5
20260505020015 74 105 6.0 14.0 0.00 0.03 0.03 78 1015.4
20260505014532 74 75 5.0 12.0 0.00 0.03 0.03 76 1015.5
20260505013054 74 347 3.0 11.0 0.00 0.03 0.03 77 1015.6
20260505011505 74 77 4.0 12.0 0.00 0.03 0.03 77 1015.3
20260505010026 74 42 6.0 15.0 0.00 0.03 0.03 77 1015.0
20260505004550 74 99 2.0 9.0 0.00 0.03 0.03 77 1015.0
20260505003001 74 80 5.0 13.0 0.00 0.03 0.03 77 1014.9
20260505001528 74 62 4.0 11.0 0.00 0.03 0.03 77 1014.8
20260504234611 74 85 3.0 14.0 0.00 0.03 0.03 77 1014.4
20260504233022 74 82 4.0 15.0 0.00 0.03 0.03 78 1014.2
20260504231544 74 73 7.0 13.0 0.00 0.03 0.03 77 1014.2
20260504230055 74 113 7.0 15.0 0.00 0.03 0.03 77 1014.4
20260504224614 74 60 6.0 15.0 0.00 0.03 0.03 77 1014.2
20260504223003 74 65 5.0 15.0 0.00 0.03 0.03 78 1014.3
20260504221531 74 30 5.0 15.0 0.00 0.03 0.03 77 1014.3
20260504220048 74 46 6.0 18.0 0.00 0.03 0.03 76 1014.3
20260504214559 75 44 8.0 17.0 0.00 0.04 0.03 75 1014.5
20260504213010 75 49 6.0 15.0 0.00 0.04 0.03 76 1014.4
20260504211528 75 37 8.0 17.0 0.00 0.04 0.03 74 1014.5
20260504210041 76 61 7.0 16.0 0.00 0.04 0.03 74 1014.5
20260504204556 76 56 9.0 18.0 0.00 0.06 0.03 73 1014.6
20260504203112 76 70 10.0 20.0 0.00 0.06 0.03 73 1014.7
20260504201513 76 68 8.0 19.0 0.00 0.06 0.03 74 1014.7
20260504200034 75 53 10.0 19.0 0.00 0.06 0.03 75 1014.9
20260504194550 75 60 10.0 20.0 0.00 0.06 0.03 74 1015.1
20260504193101 76 35 9.0 22.0 0.00 0.06 0.03 73 1015.3
20260504191517 77 58 9.0 22.0 0.00 0.06 0.03 73 1015.2
20260504190047 77 86 8.0 20.0 0.00 0.06 0.03 72 1015.5
20260504184607 77 53 6.0 18.0 0.00 0.07 0.03 73 1015.5
20260504183002 76 358 7.0 19.0 0.00 0.07 0.03 75 1015.8
20260504181517 75 68 9.0 19.0 0.00 0.07 0.03 73 1016.0
20260504180019 75 58 9.0 18.0 0.00 0.07 0.03 73 1016.1
20260504174533 75 49 9.0 17.0 0.00 0.08 0.03 73 1016.3
20260504173049 76 13 11.0 22.0 0.00 0.08 0.03 72 1016.2
20260504171611 76 53 10.0 21.0 0.00 0.08 0.03 74 1016.1
20260504100119 71 28 5.0 12.0 0.03 0.09 0.03 86 1013.8
20260504081551 74 21 7.0 13.0 0.00 0.11 0.00 81 1013.3